Regional Weather Roundup
Issued by NWS

Home | Current Version | Previous Version | Graphics & Text | Print | Product List | Glossary On
Versions: 1 2 3 4 5 6 7 8 9 10 11 12 13 14 15 16 17 18 19 20 21 22 23 24 25 26 27 28 29 30 31 32 33 34 35 36 37 38 39 40 41 42 43 44 45 46 47 48 49 50
876
ASUS44 KJAN 280503
RWRMS

MISSISSIPPI HOURLY WEATHER ROUNDUP
NATIONAL WEATHER SERVICE JACKSON MS
1200 AM CDT MON JUL 28 2014

NOTE: "FAIR: INDICATES FEW OR NO CLOUDS BELOW 12,000 FEET WITH NO
SIGNIFICANT WEATHER AND/OR OBSTRUCTIONS TO VISIBILITY.

MSZ001>002-007>008-010>013-018>021-025>028-034>036-280600-
NORTHWEST MISSISSIPPI

CITY           SKY/WX    TMP DP  RH WIND       PRES   REMARKS
CLARKSDALE     FAIR      81  81 100 CALM      29.97S HX  91
CLEVELAND      FAIR      80  78  94 SW3       29.97S
GREENWOOD      CLEAR     78  76  93 S5        29.98S
GREENVILLE     PTCLDY    82  75  79 SW5       29.97F
GRENADA        FAIR      79  75  89 CALM      29.98S
OLIVE BRANCH   PTCLDY    82  82 100 SW5       29.97R HX  97
OXFORD         FAIR      81  75  83 W6        29.99R
TUNICA         PTCLDY    81  77  89 CALM      29.97S
$$

MSZ003>006-009-014>017-022>024-029>033-037>039-280600-
NORTHEAST MISSISSIPPI

CITY           SKY/WX    TMP DP  RH WIND       PRES   REMARKS
BELMONT        MOCLDY    80  76  90 SW5       29.97S
COLUMBUS AFB   CLEAR     80  75  84 SW6       29.97F
CORINTH        FAIR      82  75  78 W6        29.95S
GOLDN TRIANGLE PTCLDY    81  73  78 W3        29.99S
STARKVILLE     FAIR      77  73  88 CALM      29.99S
TUPELO         MOCLDY    82  76  81 W6        29.96S
$$

MSZ040-058-280600-
CENTRAL MISSISSIPPI

CITY           SKY/WX    TMP DP  RH WIND       PRES   REMARKS
JACKSON INTL   PTCLDY    80  75  84 SW3       30.01F
JACKSON HAWKNS PTCLDY    82  73  74 SW6       30.02F
MERIDIAN KEY   PTCLDY    81  73  76 SW6       30.01S
MERIDIAN NAS   PTCLDY    80  74  81 SW7       30.00F
RAYMOND        FAIR      81  75  83 SW5       30.01F
VICKSBURG      PTCLDY    79  75  87 SW3       30.00F
$$

MSZ059>079-280600-
SOUTH MISSISSIPPI

CITY           SKY/WX    TMP DP  RH WIND       PRES   REMARKS
BROOKHAVEN     FAIR      79  75  89 CALM      30.06F
COLUMBIA       FAIR      77  77 100 CALM      30.03F
HATTIESBURG    PTCLDY    83  75  77 SW5       30.03F HX  90
MCCOMB         PTCLDY    79  75  87 SW3       30.06S
NATCHEZ        CLEAR     81  75  83 S5        30.04F
PINE BELT      PTCLDY    81  73  78 CALM      30.05S
$$

MSZ080>082-280600-
COASTAL MISSISSIPPI

CITY           SKY/WX    TMP DP  RH WIND       PRES   REMARKS
BILOXI         PTCLDY    84  78  81 W6        30.04F HX  94
PASCAGOULA     PTCLDY    82  78  88 SW5       30.04S HX  91
GULFPORT       CLEAR     85  77  77 W5        30.04S HX  95
$$



USA.gov is the U.S. government's official web portal to all federal, state and local government web resources and services.